Regional Weather Roundup
Issued by NWS San Diego, CA

Home | Current Version | Previous Version | Text Only | Print | Product List | Glossary On
Versions: 1 2 3 4 5 6 7 8 9 10 11 12 13 14 15 16 17 18 19 20 21 22 23 24 25 26 27 28 29 30 31 32 33 34 35 36 37 38 39 40 41 42 43 44 45 46 47 48 49 50
000
ASUS46 KSGX 261910
RWRSGX

SAN DIEGO HOURLY WEATHER ROUNDUP
NATIONAL WEATHER SERVICE SAN DIEGO CA
1100 AM PST MON JAN 26 2015

NOTE: "FAIR" INDICATES FEW OR NO CLOUDS BELOW 12,000 FEET WITH NO
SIGNIFICANT WEATHER AND/OR OBSTRUCTIONS TO VISIBILITY.

CAZ042-043-060-061-PZZ750-775-262000-

GREATER SAN DIEGO AREA

CITY           SKY/WX    TMP DP  RH WIND       PRES   REMARKS
LINDBERGH FLD  PTSUNNY   70  38  31 CALM      30.03S
POINT LOMA       N/A     73  42  32 E5          N/A
NATIONAL CITY    N/A     72  46  39 SE3       30.02S
CHULA VISTA      N/A     74  48  38 E2        29.95R
IMPERIAL BEACH PTSUNNY   81  42  25 SE18G25   30.01F
BROWN FIELD    CLOUDY    76  41  28 E15G25    30.01S
MIRAMAR MCAS   PTSUNNY   71  39  31 CALM      30.02F
MONTGOMERY FLD PTSUNNY   72  38  29 CALM      30.03S

$$

NORTH SAN DIEGO COUNTY

CITY           SKY/WX    TMP DP  RH WIND       PRES   REMARKS
CAMP PENDLETON CLOUDY    74  40  29 CALM      30.02S
OCEANSIDE AP   CLOUDY    72  45  37 CALM      30.01S
OCEANSIDE HBR    N/A     68  46  44 SE2       30.04S
VISTA            N/A     72  48  42 CALM      30.00S
CARLSBAD       CLOUDY    71  42  35 W3        30.01F
DEL MAR          N/A     68  43  40 CALM      30.04S
FALLBROOK        N/A     73  41  31 CALM      30.03S
ESCONDIDO        N/A     72  39  30 SE8       30.02S
SAN MARCOS       N/A     73  42  32 CALM      30.00S
POWAY            N/A     71  45  38 E5        30.03F

$$

EAST SAN DIEGO COUNTY

CITY           SKY/WX    TMP DP  RH WIND       PRES   REMARKS
RAMONA         LGT RAIN  66  36  32 E14       30.06R
SANTEE LAKES     N/A     66  45  45 CALM      30.03S
LA MESA          N/A     69  44  39 CALM      29.96S
JAMUL            N/A     70  45  40 E13       30.01S
DESCANSO N       N/A     57  34  41 E12       29.92F
MT. LAGUNA OBS   N/A     43  32  64 E6        29.73F
CAMPO            N/A     60  31  33 NE18      30.06F

$$

ORANGE COUNTY AND THE LOS ANGELES BASIN

CITY           SKY/WX    TMP DP  RH WIND       PRES   REMARKS
JOHN WAYNE AP  CLOUDY    77  37  23 S6        30.01S
LAGUNA BEACH     N/A     74  45  35 S2        29.97R
LAKE FOREST FR   N/A     74  34  23 CALM      29.91S
SANTA ANA        N/A     79  46  30 NE1       29.97S
HUNTINGTON BCH   N/A     76  49  38 SE2       30.03R
LOS ALAMITOS   PTSUNNY   75  43  31 E6        30.01S
FULLERTON      CLOUDY    76  37  24 E5        30.01S
LONG BEACH     CLOUDY    75  42  30 E9        30.01F
L.A. AP        CLOUDY    74  36  25 E6        30.01F
L.A. DOWNTOWN  CLOUDY    76  32  20 E6        30.00F

$$

THE INLAND EMPIRE

CITY           SKY/WX    TMP DP  RH WIND       PRES   REMARKS
CORONA         CLOUDY    74  35  24 SE5       30.03F
CHINO          CLOUDY    74  41  30 E7        30.04F
ONTARIO        CLOUDY    73  33  23 CALM      30.04S
SAN BERNARDINO PTSUNNY   64  37  36 CALM      30.05F
RIVERSIDE AP   CLOUDY    74  35  24 CALM      30.04S
RIV CYN CREST    N/A     73  45  35 SE10        N/A
MORENO VALLEY    N/A     69  40  34 E9        29.25F
MARCH ARB      CLOUDY    71  34  25 E15       30.05F
HORSETHIEF CYN   N/A     72  32  23 SE12      29.97F
PERRIS           N/A     69  36  29 E9          N/A
MENIFEE          N/A     73  41  31 N3        30.13S
HEMET EAST       N/A     67  32  27 CALM      30.04S
FRENCH VALLEY  FAIR      73  34  23 E14G24    30.05F
TEMECULA         N/A     74  41  30 NE12      30.00S

$$

SAN BERNARDINO AND RIVERSIDE COUNTY MOUNTAINS

CITY           SKY/WX    TMP DP  RH WIND       PRES   REMARKS
BIG BEAR AP    CLOUDY    46  32  57 N5        30.21F
PINE COVE        N/A     52  37  56 S3        30.02S

$$

SOUTHERN DESERT INCLUDING THE COACHELLA VALLEY

CITY           SKY/WX    TMP DP  RH WIND       PRES   REMARKS
PALM SPRINGS   CLOUDY    66  37  34 VRB5      30.16R
THOUSAND PALMS   N/A     63  36  37 E1        30.14
PALM DESERT      N/A     65  40  39 NE1       28.27S
THERMAL        CLOUDY    65  40  39 S7        30.13S
BLYTHE         LGT RAIN  54  50  86 NW5       30.15F FOG
IMPERIAL AP    CLOUDY    65  48  54 E10       30.12S
EL CENTRO NAS  CLOUDY    67  46  47 E13       30.12S
YUMA AZ        LGT RAIN  59  52  77 NE16      30.11F
MEXICALI       CLOUDY    63  54  72 E6        30.12

$$

UPPER DESERT

CITY           SKY/WX    TMP DP  RH WIND       PRES   REMARKS
VICTORVILLE AP CLOUDY    55  30  38 CALM      30.12F
HESPERIA         N/A     55  37  50 CALM      30.22F
APPLE VALLEY     N/A     59  34  38 CALM      30.14F
PALMDALE       CLOUDY    54  35  48 N5        30.13F
LANCASTER      CLOUDY    53  38  56 CALM      30.13F
EDWARDS AFB    CLOUDY    51  34  51 CALM      30.11F
DAGGETT        LGT RAIN  54  36  50 CALM      30.16R
29 PALMS N     RAIN      48  41  76 NW3       30.26R
NEEDLES        CLOUDY    67  32  27 N5        30.15F

$$

REGIONAL REPORTS

CITY           SKY/WX    TMP DP  RH WIND       PRES   REMARKS
SANTA BARBARA  MOSUNNY   74  41  30 CALM      29.99F
SANDBERG       PTSUNNY   58  28  32 E18       30.15S
MT. WILSON       N/A     55  28  35 W2          N/A
LAS VEGAS NV   PTSUNNY   64  30  27 S5        30.14F
PHOENIX AZ     CLOUDY    68  26  20 CALM      30.15F
TIJUANA        PTSUNNY   75  36  23 NE9       30.04S

$$

OFFSHORE ISLANDS

CITY           SKY/WX    TMP DP  RH WIND       PRES   REMARKS
CATALINA ARPT  CLOUDY    71  30  21 S15       30.06R
SAN CLEMENTE I CLOUDY    68  46  44 E10       29.98F
SAN NICOLAS IS PTSUNNY   67  40  37 NW6       30.00F

$$

MARINE AND OFFSHORE BUOY REPORTS

STATION/POSITION SKY/WX   TEMP    WIND        PRES    SWELL
                          AIR SEA DIR/SP/G            HT/PER/DIR
                          (F)     (DEG/KT/KT) (MB)    (FT/S/D)
TANNER BANKS               63 63  240/  8/ 10 1015.7S   7/280/14
S CLEMENTE BASIN           64 63  110/  8/ 10 1016.0S   5/280/15
SAN NICOLAS IS.               62                N/A     7/280/14
SO. S. ROSA ISLA           62 61   50/  2/  2 1015.0F   7/14
W. S. BARBARA CH           61 60   20/  4/  6 1015.3F   7/280/14
S. MONICA BASIN            66 63   60/  4/  4 1016.3R   3/260/16
S PEDRO CHANNEL               62                N/A     3/260/14
DANA POINT                    62                N/A     2/270/14
CMP PENDLETON NS              62                N/A     2/250/15
OCEANSIDE OFFSHR              62                N/A     3/260/14
TORREY PINES OTR              62                N/A     3/280/14
LA JOLLA 1                 68 62   50/  2/  3 1016.6R
MISSION BAY BUOY              62                N/A     3/270/14
SAN DIEGO BAY                 62              1017.0S
POINT LOMA SOUTH              63                N/A     3/280/14

$$




USA.gov is the U.S. government's official web portal to all federal, state and local government web resources and services.